Location: Dumpton Point
(51.3500°N, 1.4433°E)
Time: 05:24:21
(UTC+00:00)

Altair - Pass Details

Date: 01 October 2022
Orbit: 1501 x 1682 km, 47.2° (Epoch: 26 November)

Event Time Altitude Azimuth Distance (km) Brightness Sun altitude
Rises 09:28:41 0° 276° (W) 4,877 9.8 28.3°
Reaches altitude 10° 09:31:49 10° 273° (W) 3,907 9.4 28.6°
Maximum altitude 09:41:43 64° 195° (SSW) 1,824 8.7 29.5°
Drops below altitude 10° 09:51:41 10° 118° (ESE) 3,938 10.7 30.4°
Sets 09:54:52 0° 115° (ESE) 4,916 10.9 30.7°
